EST,Max TemperatureF,Mean TemperatureF,Min TemperatureF,Max Dew PointF,MeanDew PointF,Min DewpointF,Max Humidity, Mean Humidity, Min Humidity, Max Sea Level PressureIn, Mean Sea Level PressureIn, Min Sea Level PressureIn, Max VisibilityMiles, Mean VisibilityMiles, Min VisibilityMiles, Max Wind SpeedMPH, Mean Wind SpeedMPH, Max Gust SpeedMPH,PrecipitationIn, CloudCover, Events, WindDirDegrees
2011-12-1,48,37,26,34,30,27,100,93,54,30.41,30.34,30.26,10,10,2,4,0,,0.00,1,,145
2011-12-2,51,37,23,36,29,23,100,85,38,30.54,30.45,30.37,10,10,10,6,0,,0.00,0,,308
2011-12-3,59,44,28,39,32,28,100,79,36,30.55,30.51,30.46,10,10,10,6,0,,0.00,0,,138
2011-12-4,64,47,30,41,33,27,100,73,24,30.45,30.38,30.31,10,10,10,5,0,,0.00,0,,151
2011-12-5,62,52,41,54,47,39,100,81,59,30.31,30.22,30.10,10,10,7,6,0,,0.00,3,Rain,125
2011-12-6,59,54,50,59,54,50,100,100,100,30.11,30.05,30.00,10,4,0,5,0,,0.00,8,Fog-Rain,17
2011-12-7,46,39,32,46,40,30,100,99,93,30.16,29.93,29.79,10,4,1,5,0,,0.00,8,Rain-Snow,303
2011-12-8,37,32,26,32,30,27,100,95,81,30.36,30.29,30.16,10,10,7,6,1,,0.00,3,,297
2011-12-9,44,35,26,36,30,27,100,96,66,30.33,30.28,30.24,10,7,0,4,0,,0.00,3,Fog,310
2011-12-10,39,32,24,32,27,19,100,83,45,30.51,30.43,30.33,10,10,7,7,1,,0.00,2,,309
2011-12-11,46,32,19,30,24,18,100,86,37,30.60,30.53,30.47,10,10,10,5,0,,0.00,0,,85
2011-12-12,51,38,24,37,29,23,100,80,40,30.53,30.48,30.44,10,10,10,0,0,,0.00,3,,-1
2011-12-13,51,46,41,45,41,37,100,87,71,30.52,30.47,30.43,10,10,10,4,0,,0.00,8,,307
2011-12-14,64,52,41,48,44,41,100,87,49,30.42,30.34,30.24,10,10,10,0,0,,0.00,4,Rain,-1
2011-12-15,62,50,37,55,46,37,100,91,59,30.21,30.14,30.06,10,8,2,6,0,,0.00,5,Rain,260
2011-12-16,53,44,35,52,40,36,100,90,66,30.33,30.24,30.15,10,8,2,6,0,,0.00,7,Rain,304
2011-12-17,35,30,26,34,29,27,100,88,70,30.32,30.27,30.25,10,10,10,5,1,,0.00,6,,298
2011-12-18,44,36,28,30,30,28,100,86,53,30.36,30.30,30.25,10,10,10,5,1,,0.00,4,,309
2011-12-19,51,38,24,37,31,25,100,84,41,30.31,30.25,30.18,10,10,10,0,0,,0.00,3,,-1
2011-12-20,55,44,32,46,39,32,100,84,62,30.22,30.15,30.06,10,10,10,4,0,,0.00,5,,130
2011-12-21,57,50,42,57,49,43,100,99,93,30.06,29.97,29.87,10,7,1,0,0,,0.00,6,Rain,-1
2011-12-22,57,46,35,54,44,36,100,99,82,30.16,30.05,29.87,10,5,0,4,0,,0.00,6,Fog-Rain,10
2011-12-23,44,42,39,45,40,37,100,94,81,30.30,30.22,30.04,10,8,2,5,0,,0.00,8,Rain,303
2011-12-24,44,38,32,41,35,32,100,86,61,30.48,30.41,30.32,10,10,5,5,0,,0.00,6,,241
2011-12-25,53,40,28,37,30,23,100,81,30,30.39,30.30,30.16,10,10,2,5,0,,0.00,1,,306
2011-12-26,48,38,28,34,31,28,100,77,50,30.43,30.31,30.14,10,10,10,7,2,,0.00,1,,322
2011-12-27,53,44,35,50,38,23,100,83,37,30.05,29.74,29.51,10,8,0,8,1,20,0.00,7,Rain-Snow,306
2011-12-28,42,37,32,36,32,28,100,85,57,30.08,29.97,29.80,10,9,2,8,3,17,0.00,6,Snow,310
2011-12-29,48,37,26,36,31,27,100,87,50,30.08,29.99,29.92,10,10,10,5,0,,0.00,2,,190
2011-12-30,60,45,30,45,38,30,100,80,48,30.06,29.95,29.84,10,10,10,6,0,,0.00,2,,208
2011-12-31,50,41,32,45,39,32,100,89,66,30.16,30.05,29.87,10,10,4,6,1,17,0.00,5,,309